Time,TemperatureF,DewpointF,PressureIn,WindDirection,WindDirectionDegrees,WindSpeedMPH,WindSpeedGustMPH,Humidity,HourlyPrecipIn,Conditions,Clouds,dailyrainin,SoftwareType,DateUTC
2013-07-28 00:12:00,69.1,54.0,29.88,SW,232,0.0,0.0,60,0.00,,,0.00,weatherlink.com 1.10,2013-07-28 07:12:00,
2013-07-28 00:27:00,68.9,55.0,29.87,SW,232,0.0,0.0,61,0.00,,,0.00,weatherlink.com 1.10,2013-07-28 07:27:00,
2013-07-28 00:42:00,68.0,55.0,29.87,SW,232,0.0,0.0,63,0.00,,,0.00,weatherlink.com 1.10,2013-07-28 07:42:00,
2013-07-28 00:57:00,67.7,55.0,29.87,SW,232,0.0,0.0,64,0.00,,,0.00,weatherlink.com 1.10,2013-07-28 07:57:00,
2013-07-28 01:12:00,67.2,55.0,29.87,SW,232,0.0,0.0,64,0.00,,,0.00,weatherlink.com 1.10,2013-07-28 08:12:00,
2013-07-28 01:27:00,66.4,55.0,29.87,SW,232,0.0,0.0,66,0.00,,,0.00,weatherlink.com 1.10,2013-07-28 08:27:00,
2013-07-28 01:42:00,65.8,54.0,29.86,SW,232,0.0,0.0,67,0.00,,,0.00,weatherlink.com 1.10,2013-07-28 08:42:00,
2013-07-28 01:57:00,65.5,55.0,29.86,SW,232,0.0,0.0,68,0.00,,,0.00,weatherlink.com 1.10,2013-07-28 08:57:00,
2013-07-28 02:12:00,64.7,54.0,29.86,SW,232,0.0,0.0,69,0.00,,,0.00,weatherlink.com 1.10,2013-07-28 09:12:00,
2013-07-28 02:27:00,64.4,54.0,29.86,SW,232,0.0,0.0,70,0.00,,,0.00,weatherlink.com 1.10,2013-07-28 09:27:00,
2013-07-28 02:42:00,64.3,54.0,29.86,SW,232,0.0,0.0,70,0.00,,,0.00,weatherlink.com 1.10,2013-07-28 09:42:00,
2013-07-28 02:57:00,64.7,55.0,29.85,SW,232,0.0,0.0,71,0.00,,,0.00,weatherlink.com 1.10,2013-07-28 09:57:00,
2013-07-28 03:12:00,65.0,55.0,29.85,SW,232,0.0,0.0,70,0.00,,,0.00,weatherlink.com 1.10,2013-07-28 10:12:00,
2013-07-28 03:27:00,64.9,55.0,29.85,SW,232,0.0,0.0,70,0.00,,,0.00,weatherlink.com 1.10,2013-07-28 10:27:00,
2013-07-28 03:42:00,64.2,55.0,29.84,SW,232,0.0,0.0,72,0.00,,,0.00,weatherlink.com 1.10,2013-07-28 10:42:00,
2013-07-28 03:57:00,63.8,55.0,29.84,SW,232,0.0,0.0,74,0.00,,,0.00,weatherlink.com 1.10,2013-07-28 10:57:00,
2013-07-28 04:12:00,63.6,55.0,29.84,SW,232,0.0,0.0,74,0.00,,,0.00,weatherlink.com 1.10,2013-07-28 11:12:00,
2013-07-28 04:27:00,63.0,55.0,29.83,SW,232,0.0,0.0,75,0.00,,,0.00,weatherlink.com 1.10,2013-07-28 11:27:00,
2013-07-28 04:42:00,62.7,55.0,29.83,SW,232,0.0,0.0,76,0.00,,,0.00,weatherlink.com 1.10,2013-07-28 11:42:00,
2013-07-28 04:57:00,63.1,56.0,29.83,SW,232,0.0,0.0,77,0.00,,,0.00,weatherlink.com 1.10,2013-07-28 11:57:00,
2013-07-28 05:12:00,62.6,55.0,29.83,SW,232,0.0,0.0,77,0.00,,,0.00,weatherlink.com 1.10,2013-07-28 12:12:00,
2013-07-28 05:27:00,63.2,56.0,29.83,SW,232,0.0,0.0,77,0.00,,,0.00,weatherlink.com 1.10,2013-07-28 12:27:00,
2013-07-28 05:42:00,63.0,56.0,29.84,SW,232,0.0,0.0,77,0.00,,,0.00,weatherlink.com 1.10,2013-07-28 12:42:00,
2013-07-28 05:57:00,62.4,55.0,29.84,SW,232,0.0,0.0,78,0.00,,,0.00,weatherlink.com 1.10,2013-07-28 12:57:00,
2013-07-28 06:13:00,62.7,55.0,29.84,SW,232,0.0,0.0,77,0.00,,,0.00,weatherlink.com 1.10,2013-07-28 13:13:00,
2013-07-28 06:28:00,63.2,56.0,29.85,SW,232,0.0,0.0,76,0.00,,,0.00,weatherlink.com 1.10,2013-07-28 13:28:00,
2013-07-28 06:43:00,64.0,56.0,29.85,SW,232,0.0,0.0,75,0.00,,,0.00,weatherlink.com 1.10,2013-07-28 13:43:00,
2013-07-28 06:58:00,66.7,57.0,29.85,SW,232,0.0,0.0,72,0.00,,,0.00,weatherlink.com 1.10,2013-07-28 13:58:00,
2013-07-28 07:13:00,69.8,57.0,29.85,SW,232,0.0,0.0,64,0.00,,,0.00,weatherlink.com 1.10,2013-07-28 14:13:00,
2013-07-28 07:28:00,72.6,57.0,29.85,SW,232,0.0,0.0,58,0.00,,,0.00,weatherlink.com 1.10,2013-07-28 14:28:00,
2013-07-28 07:43:00,74.6,58.0,29.85,SW,232,0.0,0.0,57,0.00,,,0.00,weatherlink.com 1.10,2013-07-28 14:43:00,
2013-07-28 07:58:00,73.4,57.0,29.85,East,91,1.0,2.0,57,0.00,,,0.00,weatherlink.com 1.10,2013-07-28 14:58:00,
2013-07-28 08:13:00,72.7,57.0,29.86,East,90,0.0,2.0,59,0.00,,,0.00,weatherlink.com 1.10,2013-07-28 15:13:00,
2013-07-28 08:28:00,72.5,57.0,29.86,ENE,69,1.0,2.0,58,0.00,,,0.00,weatherlink.com 1.10,2013-07-28 15:28:00,
2013-07-28 08:43:00,74.5,57.0,29.86,NE,34,1.0,2.0,55,0.00,,,0.00,weatherlink.com 1.10,2013-07-28 15:43:00,
2013-07-28 08:58:00,77.4,58.0,29.86,East,90,1.0,1.0,52,0.00,,,0.00,weatherlink.com 1.10,2013-07-28 15:58:00,
2013-07-28 09:13:00,79.2,58.0,29.87,ENE,64,0.0,2.0,48,0.00,,,0.00,weatherlink.com 1.10,2013-07-28 16:13:00,
2013-07-28 09:28:00,80.9,58.0,29.86,ENE,65,0.0,2.0,46,0.00,,,0.00,weatherlink.com 1.10,2013-07-28 16:28:00,
2013-07-28 09:43:00,81.3,58.0,29.86,East,98,2.0,4.0,45,0.00,,,0.00,weatherlink.com 1.10,2013-07-28 16:43:00,
2013-07-28 09:58:00,81.9,58.0,29.86,East,88,1.0,3.0,44,0.00,,,0.00,weatherlink.com 1.10,2013-07-28 16:58:00,
2013-07-28 10:13:00,83.2,58.0,29.86,East,84,2.0,4.0,42,0.00,,,0.00,weatherlink.com 1.10,2013-07-28 17:13:00,
2013-07-28 10:28:00,84.8,59.0,29.86,North,1,0.0,3.0,41,0.00,,,0.00,weatherlink.com 1.10,2013-07-28 17:28:00,
2013-07-28 10:43:00,85.9,58.0,29.86,ENE,74,4.0,4.0,39,0.00,,,0.00,weatherlink.com 1.10,2013-07-28 17:43:00,
2013-07-28 10:58:00,87.0,58.0,29.86,ENE,68,1.0,4.0,38,0.00,,,0.00,weatherlink.com 1.10,2013-07-28 17:58:00,
2013-07-28 11:13:00,88.5,58.0,29.86,NE,54,1.0,5.0,36,0.00,,,0.00,weatherlink.com 1.10,2013-07-28 18:13:00,
2013-07-28 11:28:00,89.0,58.0,29.86,ENE,58,3.0,5.0,35,0.00,,,0.00,weatherlink.com 1.10,2013-07-28 18:28:00,
2013-07-28 11:43:00,90.8,58.0,29.86,NNE,14,3.0,6.0,33,0.00,,,0.00,weatherlink.com 1.10,2013-07-28 18:43:00,
2013-07-28 11:58:00,90.0,57.0,29.86,East,96,2.0,6.0,33,0.00,,,0.00,weatherlink.com 1.10,2013-07-28 18:58:00,
2013-07-28 12:13:00,91.6,57.0,29.85,East,99,2.0,5.0,31,0.00,,,0.00,weatherlink.com 1.10,2013-07-28 19:13:00,
2013-07-28 12:28:00,92.6,56.0,29.85,NW,319,2.0,6.0,29,0.00,,,0.00,weatherlink.com 1.10,2013-07-28 19:28:00,
2013-07-28 12:44:00,93.5,54.0,29.85,East,82,4.0,5.0,26,0.00,,,0.00,weatherlink.com 1.10,2013-07-28 19:44:00,
2013-07-28 12:59:00,93.3,55.0,29.85,North,9,2.0,5.0,27,0.00,,,0.00,weatherlink.com 1.10,2013-07-28 19:59:00,
2013-07-28 13:14:00,93.2,55.0,29.84,SE,129,1.0,7.0,27,0.00,,,0.00,weatherlink.com 1.10,2013-07-28 20:14:00,
2013-07-28 13:29:00,94.1,55.0,29.84,North,6,1.0,7.0,27,0.00,,,0.00,weatherlink.com 1.10,2013-07-28 20:29:00,
2013-07-28 13:44:00,94.8,55.0,29.84,ESE,121,3.0,6.0,26,0.00,,,0.00,weatherlink.com 1.10,2013-07-28 20:44:00,
2013-07-28 13:59:00,95.4,54.0,29.84,SSW,194,3.0,6.0,25,0.00,,,0.00,weatherlink.com 1.10,2013-07-28 20:59:00,
2013-07-28 14:14:00,94.2,53.0,29.83,East,96,2.0,8.0,25,0.00,,,0.00,weatherlink.com 1.10,2013-07-28 21:14:00,
2013-07-28 14:29:00,95.4,52.0,29.83,NE,53,2.0,6.0,23,0.00,,,0.00,weatherlink.com 1.10,2013-07-28 21:29:00,
2013-07-28 14:44:00,95.1,44.0,29.82,ESE,120,3.0,7.0,17,0.00,,,0.00,weatherlink.com 1.10,2013-07-28 21:44:00,
2013-07-28 14:59:00,94.0,38.0,29.82,East,86,2.0,9.0,14,0.00,,,0.00,weatherlink.com 1.10,2013-07-28 21:59:00,
2013-07-28 15:14:00,94.3,30.0,29.82,East,91,3.0,6.0,10,0.00,,,0.00,weatherlink.com 1.10,2013-07-28 22:14:00,
2013-07-28 15:29:00,94.7,35.0,29.81,ESE,107,4.0,6.0,12,0.00,,,0.00,weatherlink.com 1.10,2013-07-28 22:29:00,
2013-07-28 15:44:00,93.0,26.0,29.81,ESE,108,5.0,7.0,9,0.00,,,0.00,weatherlink.com 1.10,2013-07-28 22:44:00,
2013-07-28 15:59:00,92.8,35.0,29.81,SE,139,3.0,6.0,13,0.00,,,0.00,weatherlink.com 1.10,2013-07-28 22:59:00,
2013-07-28 16:14:00,91.4,34.0,29.81,SE,127,2.0,7.0,13,0.00,,,0.00,weatherlink.com 1.10,2013-07-28 23:14:00,
2013-07-28 16:29:00,90.0,35.0,29.80,SE,143,4.0,9.0,14,0.00,,,0.00,weatherlink.com 1.10,2013-07-28 23:29:00,
2013-07-28 16:44:00,89.6,38.0,29.80,ENE,77,3.0,7.0,16,0.00,,,0.00,weatherlink.com 1.10,2013-07-28 23:44:00,
2013-07-28 16:59:00,89.8,39.0,29.80,East,94,1.0,4.0,17,0.00,,,0.00,weatherlink.com 1.10,2013-07-28 23:59:00,
2013-07-28 17:14:00,89.9,41.0,29.80,SE,141,1.0,4.0,18,0.00,,,0.00,weatherlink.com 1.10,2013-07-29 00:14:00,
2013-07-28 17:29:00,89.2,40.0,29.80,SSE,150,2.0,5.0,18,0.00,,,0.00,weatherlink.com 1.10,2013-07-29 00:29:00,
2013-07-28 17:44:00,88.8,39.0,29.80,East,98,2.0,3.0,17,0.00,,,0.00,weatherlink.com 1.10,2013-07-29 00:44:00,
2013-07-28 17:59:00,88.3,40.0,29.80,SSW,200,1.0,2.0,18,0.00,,,0.00,weatherlink.com 1.10,2013-07-29 00:59:00,
2013-07-28 18:29:00,86.5,41.0,29.79,NNE,19,0.0,2.0,20,0.00,,,0.00,weatherlink.com 1.10,2013-07-29 01:29:00,
2013-07-28 18:44:00,85.4,42.0,29.79,SE,124,0.0,3.0,22,0.00,,,0.00,weatherlink.com 1.10,2013-07-29 01:44:00,
2013-07-28 18:59:00,83.5,44.0,29.79,ENE,78,0.0,2.0,25,0.00,,,0.00,weatherlink.com 1.10,2013-07-29 01:59:00,
2013-07-28 19:14:00,82.0,44.0,29.79,East,86,0.0,2.0,26,0.00,,,0.00,weatherlink.com 1.10,2013-07-29 02:14:00,
2013-07-28 19:29:00,80.6,46.0,29.79,ESE,110,0.0,1.0,29,0.00,,,0.00,weatherlink.com 1.10,2013-07-29 02:29:00,
2013-07-28 19:59:00,77.5,47.0,29.80,NW,312,1.0,2.0,34,0.00,,,0.00,weatherlink.com 1.10,2013-07-29 02:59:00,
2013-07-28 20:14:00,76.6,48.0,29.80,WNW,288,1.0,1.0,36,0.00,,,0.00,weatherlink.com 1.10,2013-07-29 03:14:00,
2013-07-28 20:29:00,75.3,47.0,29.80,NW,304,0.0,2.0,37,0.00,,,0.00,weatherlink.com 1.10,2013-07-29 03:29:00,
2013-07-28 20:44:00,73.7,48.0,29.80,NNW,339,1.0,1.0,40,0.00,,,0.00,weatherlink.com 1.10,2013-07-29 03:44:00,
2013-07-28 20:59:00,72.4,48.0,29.81,NNW,339,1.0,1.0,42,0.00,,,0.00,weatherlink.com 1.10,2013-07-29 03:59:00,
2013-07-28 21:14:00,71.6,49.0,29.81,NW,304,1.0,3.0,45,0.00,,,0.00,weatherlink.com 1.10,2013-07-29 04:14:00,
2013-07-28 21:29:00,70.5,49.0,29.81,WNW,295,1.0,1.0,46,0.00,,,0.00,weatherlink.com 1.10,2013-07-29 04:29:00,
2013-07-28 21:44:00,69.8,49.0,29.82,WSW,255,0.0,1.0,48,0.00,,,0.00,weatherlink.com 1.10,2013-07-29 04:44:00,
2013-07-28 21:59:00,69.3,50.0,29.82,NW,323,0.0,1.0,50,0.00,,,0.00,weatherlink.com 1.10,2013-07-29 04:59:00,
2013-07-28 22:14:00,68.3,49.0,29.82,NW,321,0.0,1.0,51,0.00,,,0.00,weatherlink.com 1.10,2013-07-29 05:14:00,
2013-07-28 22:29:00,67.3,50.0,29.82,NW,321,0.0,0.0,54,0.00,,,0.00,weatherlink.com 1.10,2013-07-29 05:29:00,
2013-07-28 22:44:00,66.2,49.0,29.82,NW,320,0.0,0.0,55,0.00,,,0.00,weatherlink.com 1.10,2013-07-29 05:44:00,
2013-07-28 22:59:00,65.6,50.0,29.82,NW,321,0.0,0.0,58,0.00,,,0.00,weatherlink.com 1.10,2013-07-29 05:59:00,
2013-07-28 23:14:00,64.6,50.0,29.82,NW,321,0.0,0.0,59,0.00,,,0.00,weatherlink.com 1.10,2013-07-29 06:14:00,
2013-07-28 23:29:00,63.1,50.0,29.82,NW,321,0.0,0.0,62,0.00,,,0.00,weatherlink.com 1.10,2013-07-29 06:29:00,
2013-07-28 23:44:00,62.5,50.0,29.82,NW,321,0.0,0.0,64,0.00,,,0.00,weatherlink.com 1.10,2013-07-29 06:44:00,
2013-07-28 23:59:00,61.7,48.0,29.82,NW,321,0.0,0.0,62,0.00,,,0.00,weatherlink.com 1.10,2013-07-29 06:59:00,